Skip Page Navigation
NASA JPL Caltech
NASA Logo - Jet Propulsion Laboratory + View the NASA Portal
+ Near-Earth Object (NEO) Program
Search JPL
JPL Home Earth Solar System Stars & Galaxies Technology
JPL Solar System Dynamics
BODIES ORBITS EPHEMERIDES TOOLS PHYSICAL DATA DISCOVERY FAQ SITE MAP
JPL Small-Body Database Browser
Search: [ help ]  
19989 (1990 RN8)
Classification: Main-belt Asteroid          SPK-ID: 2019989
Ephemeris | Orbit Diagram | Orbital Elements | Physical Parameters | Discovery Circumstances ]

[ show orbit diagram ]
Orbital Elements at Epoch 2457600.5 (2016-Jul-31.0) TDB
Reference: JPL 16 (heliocentric ecliptic J2000)
 Element Value Uncertainty (1-sigma)   Units 
e .08983465848691721 5.8876e-08  
a 2.709055484954982 2.0083e-08 au
q 2.465688410641941 1.577e-07 au
i 3.098783615250898 6.6472e-06 deg
node 168.0547715926363 8.7045e-05 deg
peri 221.2070375125851 9.2573e-05 deg
M 252.791383515018 3.2125e-05 deg
tp 2458085.511981890762
(2017-Nov-28.01198189)
0.00014684 JED
period 1628.640674652612
4.46
1.811e-05
4.958e-08
d
yr
n .221043232926003 2.4579e-09 deg/d
Q 2.952422559268022 2.1887e-08 au
  Orbit Determination Parameters
   # obs. used (total)      999  
   data-arc span      9096 days (24.90 yr)  
   first obs. used      1990-08-16  
   last obs. used      2015-07-12  
   planetary ephem.      DE431  
   SB-pert. ephem.      SB431-BIG16  
   condition code      0  
   fit RMS      .58489  
   data source      ORB  
   producer      Otto Matic  
   solution date      2016-Feb-25 19:26:48  

Additional Information
 Earth MOID = 1.47 au 
 Jupiter MOID = 2.44642 au 
 T_jup = 3.356 
[ show covariance matrix ]

Ephemeris | Orbit Diagram | Orbital Elements | Physical Parameters | Discovery Circumstances ]

Physical Parameter Table
Parameter Symbol Value Units Sigma Reference Notes
absolute magnitude H 14.3 mag n/a MPO337427  

19989 (1990 RN8)          Discovered 1990-Sep-15 by Debehogne, H. at La Silla
Reference: 20010109/Numbers.arcLast Updated: 2004-04-19

Alternate Designations
 1990 RN8 = 1986 WF4 = 1999 RN27 
Ephemeris | Orbit Diagram | Orbital Elements | Physical Parameters | Discovery Circumstances ]
ABOUT SSD CREDITS/AWARDS PRIVACY/COPYRIGHT GLOSSARY LINKS
FirstGov 2016-May-04 21:11 UT
(server date/time)  
NASA Home Page
Site Manager:   Ryan S. Park
Webmaster  Alan B. Chamberlin